Weather Roundup
Issued by NWS Chicago, IL

Home | Current Version | Previous Version | Text Only | Print | Product List | Glossary Off
Versions: 1 2 3 4 5 6 7 8 9 10 11 12 13 14 15 16 17 18 19 20 21 22 23 24 25 26 27 28 29 30 31 32 33 34 35 36 37 38 39 40 41 42 43 44 45 46 47 48 49 50

000
NZUS59 KLOT 010558
HRRLOT

CHICAGO AREA WEATHER ROUNDUP
NATIONAL WEATHER SERVICE CHICAGO/ROMEOVILLE IL
100 AM CDT WED OCT 01 2014

NOTE: "FAIR" INDICATES FEW OR NO CLOUDS BELOW 12,000 FEET WITH NO
SIGNIFICANT WEATHER AND/OR OBSTRUCTIONS TO VISIBILITY.

* THESE STATIONS ARE NOT UNDER NWS QUALITY CONTROL. THEY ALSO MAY NOT
  REPORT WEATHER SUCH AS PRECIPITATION OR FOG.

ILZ005-006-012>014-019>023-010700-
NORTHEAST ILLINOIS

CITY           SKY/WX    TMP DP  RH WIND       PRES   REMARKS
OHARE          CLOUDY    55  46  71 E8        30.01S
6HR MIN TEMP:  52; 6HR MAX TEMP:  55; 6HR PCP: TRACE;

MIDWAY         NOT AVBL
AURORA         CLOUDY    53  48  83 NE3       30.01S
6HR MIN TEMP:  53; 6HR MAX TEMP:  55;

WAUKEGAN       NOT AVBL
DUPAGE AIRPORT CLOUDY    54  48  80 E3        30.00S
6HR MIN TEMP:  53; 6HR MAX TEMP:  54;

WHEELING       CLOUDY    56  47  71 SE8       30.01F
6HR MIN TEMP:  54; 6HR MAX TEMP:  57;

NORTHERLY IS     N/A     55  47  74 E9          N/A
$$

WIZ051-052-058>065-066-070>072-010700-
SOUTHEAST WISCONSIN

CITY           SKY/WX    TMP DP  RH WIND       PRES   REMARKS
MILWAUKEE      CLOUDY    53  50  89 W5        30.02F
6HR MIN TEMP:  50; 6HR MAX TEMP:  53; 6HR PCP:  0.02;

KENOSHA*       CLOUDY    52  50  93 N5        30.02F
RACINE*        CLOUDY    56  48  74 E10       30.03F
$$

INZ001>003-010>013-019-020-010700-
NORTHWEST INDIANA

CITY           SKY/WX    TMP DP  RH WIND       PRES   REMARKS
GARY*          NOT AVBL
MICHIGAN CITY* NOT AVBL
RENSSELAER*    NOT AVBL
$$

LMZ740>746-010700-
SOUTHERN LAKE MICHIGAN

STATION/POSITION TIME  SKY/WX   TEMP WIND        PRES    VSBY
                                AIR  DIR/SP/G
                 (UTC)          (F)  (DEG/KT/KT) (MB)    (MI)
HARRISON CRIB    0500            55   80/ 12/ 17   N/A
BURNHAM HARBOR   0500            55   90/ 12/ 13   N/A
CALUMET HARBOR   0500            56   90/  8/ 11 1015.1F
BURNS HARBOR     NOT AVBL
MICHIGAN CITY    0500            54   50/  4/  5   N/A
$$

ABBREVIATIONS USED IN REMARKS
   TC - TEMPERATURE IN CELSIUS
  WCI - WIND CHILL INDEX
   HX - HEAT INDEX
  VSB - VISIBILITY
$$


USA.gov is the U.S. government's official web portal to all federal, state and local government web resources and services.